Weather History for Robinson, IL

Change the Weather History Date:

Saturday, July 20, 2013

  Actual Average (KLWV) Record (KLWV)
Temperature  
Mean Temperature 82 °F 78 °F  
Max Temperature 93 °F 88 °F 97 °F (2011)
Min Temperature 70 °F 68 °F 57 °F (2014)
Degree Days  
Heating Degree Days 0 0  
Month to date heating degree days 0  
Since 1 June heating degree days 7  
Since 1 July heating degree days 0  
Cooling Degree Days 16 13  
Month to date cooling degree days 260  
Year to date cooling degree days 689  
Since 1 June cooling degree days 550  
Growing Degree Days 32 (Base 50)    
Moisture  
Dew Point 72 °F    
Average Humidity 81    
Maximum Humidity 97    
Minimum Humidity 55    
Precipitation  
Precipitation 2.21 in 0.16 in 2.00 in (2010)
Month to date precipitation 2.97  
Year to date precipitation 24.51  
Sea Level Pressure  
Sea Level Pressure 29.91 in    
Wind  
Wind Speed 7 mph (SSW)    
Max Wind Speed 28 mph    
Max Gust Speed 39 mph    
Visibility 9 miles    
Events Rain , Thunderstorm    
T = Trace of Precipitation, MM = Missing Value Source: NWS Daily Summary

Daily Weather History Graph

Daily Weather History Graph

Search for Another Location

Airport:

Trip Planner

Search our weather history database for the weather conditions in past years. The results will help you decide how hot, cold, wet, or windy it might be!

Date:

Astronomy

Jul. 20, 2013 Rise Set
Actual Time 5:41 AM CDT 8:12 PM CDT
Civil Twilight 5:10 AM CDT 8:42 PM CDT
Nautical Twilight 4:32 AM CDT 9:21 PM CDT
Astronomical Twilight 3:49 AM CDT 10:03 PM CDT
Moon 6:15 PM CDT (7/20) 3:20 AM CDT (7/20)
Length of Visible Light 15h 32m
Length of Day
14h 30m
Waxing Gibbous, 94% of the Moon is Illuminated
Jul 20
Waxing Gibbous
Jul 22
Full
Jul 29
Last Quarter
Aug 6
New
Aug 14
First Quarter

Hourly Weather History & Observations

Time (CDT) Temp. Heat Index Dew Point Humidity Pressure Visibility Wind Dir Wind Speed Gust Speed Precip Events Conditions
12:15 AM 79.9 °F - 72.3 °F 78% 29.94 in 10.0 mi SSW 5.8 mph - N/A   Clear
12:35 AM 79.7 °F - 72.5 °F 79% 29.94 in 10.0 mi SSW 5.8 mph - N/A   Clear
12:55 AM 79.0 °F - 72.5 °F 80% 29.93 in 10.0 mi SSW 5.8 mph - N/A   Clear
1:15 AM 79.0 °F - 72.5 °F 80% 29.93 in 10.0 mi South 6.9 mph - N/A   Clear
1:35 AM 78.8 °F - 72.5 °F 81% 29.92 in 10.0 mi South 6.9 mph - N/A   Clear
1:55 AM 78.6 °F - 72.5 °F 81% 29.92 in 10.0 mi South 5.8 mph - N/A   Clear
2:15 AM 78.4 °F - 72.5 °F 82% 29.91 in 10.0 mi SSW 6.9 mph - N/A   Clear
2:35 AM 78.6 °F - 72.3 °F 81% 29.91 in 10.0 mi SSW 8.1 mph - N/A   Clear
2:55 AM 78.8 °F - 72.5 °F 81% 29.90 in 10.0 mi SSW 6.9 mph - N/A   Clear
3:15 AM 78.3 °F - 72.3 °F 82% 29.90 in 10.0 mi SSW 6.9 mph - N/A   Clear
3:35 AM 77.9 °F - 72.1 °F 82% 29.90 in 10.0 mi SSW 6.9 mph - N/A   Clear
3:55 AM 77.9 °F - 72.1 °F 82% 29.89 in 10.0 mi SSW 6.9 mph - N/A   Clear
4:15 AM 77.4 °F - 72.1 °F 84% 29.90 in 10.0 mi SSW 6.9 mph - N/A   Clear
4:35 AM 77.2 °F - 72.1 °F 84% 29.89 in 10.0 mi SSW 6.9 mph - N/A   Clear
4:55 AM 77.0 °F - 72.1 °F 85% 29.90 in 10.0 mi SSW 5.8 mph - N/A   Clear
5:15 AM 76.5 °F - 72.3 °F 87% 29.90 in 10.0 mi SSW 5.8 mph - N/A   Clear
5:35 AM 76.6 °F - 72.1 °F 86% 29.90 in 10.0 mi SSW 6.9 mph - N/A   Clear
5:55 AM 76.6 °F - 72.1 °F 86% 29.90 in 10.0 mi SSW 5.8 mph - N/A   Clear
6:15 AM 77.7 °F - 72.1 °F 83% 29.91 in 10.0 mi SSW 6.9 mph - N/A   Clear
6:35 AM 77.9 °F - 72.5 °F 83% 29.91 in 10.0 mi SSW 4.6 mph - N/A   Clear
6:55 AM 78.8 °F - 72.5 °F 81% 29.91 in 10.0 mi South 5.8 mph - N/A   Clear
7:15 AM 79.7 °F - 72.7 °F 79% 29.91 in 10.0 mi South 8.1 mph - N/A   Clear
7:35 AM 80.6 °F 85.0 °F 72.9 °F 77% 29.91 in 10.0 mi South 9.2 mph - N/A   Clear
7:55 AM 81.7 °F 86.9 °F 73.0 °F 75% 29.92 in 10.0 mi South 9.2 mph - N/A   Clear
8:15 AM 82.6 °F 88.6 °F 73.4 °F 74% 29.91 in 10.0 mi SSW 9.2 mph - N/A   Clear
8:35 AM 83.7 °F 89.7 °F 73.0 °F 70% 29.92 in 10.0 mi SW 8.1 mph - N/A   Clear
8:55 AM 84.4 °F 91.0 °F 73.0 °F 69% 29.92 in 10.0 mi SW 13.8 mph - N/A   Clear
9:15 AM 85.3 °F 92.2 °F 73.4 °F 67% 29.91 in 10.0 mi SSW 9.2 mph - N/A   Clear
9:35 AM 85.6 °F 93.0 °F 73.8 °F 67% 29.91 in 10.0 mi SSW 9.2 mph - N/A   Clear
9:55 AM 86.9 °F 95.4 °F 74.3 °F 66% 29.91 in 10.0 mi South 8.1 mph - N/A   Clear
10:15 AM 88.0 °F 96.5 °F 73.8 °F 63% 29.91 in 10.0 mi SSW 8.1 mph - N/A   Clear
10:35 AM 87.4 °F 95.8 °F 73.8 °F 64% 29.90 in 10.0 mi South 9.2 mph - N/A   Clear
10:55 AM 88.9 °F 98.1 °F 74.1 °F 62% 29.90 in 10.0 mi South 8.1 mph - N/A   Clear
11:15 AM 90.1 °F 98.9 °F 73.8 °F 58% 29.90 in 10.0 mi SSW 11.5 mph 16.1 mph N/A   Clear
11:35 AM 91.2 °F 101.4 °F 74.5 °F 58% 29.90 in 10.0 mi South 9.2 mph - N/A   Clear
11:55 AM 91.9 °F 101.3 °F 73.9 °F 55% 29.89 in 10.0 mi South 5.8 mph - N/A Thunderstorm Scattered Clouds
12:15 PM 89.1 °F 97.5 °F 73.6 °F 60% 29.89 in 10.0 mi South 6.9 mph - N/A   Mostly Cloudy
12:35 PM 91.6 °F 102.3 °F 74.7 °F 58% 29.89 in 10.0 mi South 8.1 mph - N/A   Mostly Cloudy
12:55 PM 92.1 °F 102.4 °F 74.3 °F 56% 29.88 in 10.0 mi SW 11.5 mph 16.1 mph N/A Thunderstorm Mostly Cloudy
1:15 PM 91.8 °F 102.1 °F 74.5 °F 57% 29.86 in 10.0 mi SSW 10.4 mph - N/A   Scattered Clouds
1:35 PM 90.7 °F 100.7 °F 74.5 °F 59% 29.87 in 10.0 mi SSW 6.9 mph - N/A   Mostly Cloudy
1:55 PM 93.4 °F 105.5 °F 75.4 °F 56% 29.86 in 10.0 mi South 10.4 mph 16.1 mph N/A Thunderstorm Scattered Clouds
2:15 PM 92.1 °F 102.4 °F 74.1 °F 56% 29.85 in 10.0 mi South 11.5 mph 18.4 mph N/A Thunderstorm Thunderstorm
2:35 PM 81.7 °F 85.4 °F 70.0 °F 68% 29.87 in 10.0 mi NNE 11.5 mph 23.0 mph N/A Thunderstorm Thunderstorm
2:55 PM 76.1 °F - 71.8 °F 86% 29.84 in 7.0 mi North 15.0 mph 20.7 mph N/A Rain , Thunderstorm Light Thunderstorms and Rain
3:15 PM 70.3 °F - 68.0 °F 92% 29.92 in 0.5 mi North 27.6 mph 39.1 mph 0.75 in Rain , Thunderstorm Light Thunderstorms and Rain
3:35 PM 71.6 °F - 70.2 °F 95% 29.93 in 1.2 mi NNE 11.5 mph - 1.60 in Rain , Thunderstorm Heavy Thunderstorms and Rain
3:55 PM 70.7 °F - 69.3 °F 95% 29.93 in 1.2 mi ESE 15.0 mph - 2.03 in Rain , Thunderstorm Heavy Thunderstorms and Rain
4:15 PM 70.2 °F - 69.1 °F 96% 29.92 in 3.0 mi SE 9.2 mph - 0.11 in Rain , Thunderstorm Heavy Thunderstorms and Rain
4:35 PM 70.2 °F - 69.1 °F 96% 29.90 in 10.0 mi SSE 6.9 mph - 0.15 in Rain , Thunderstorm Thunderstorms and Rain
4:55 PM 70.7 °F - 69.4 °F 96% 29.90 in 7.0 mi SSW 6.9 mph - 0.16 in Rain , Thunderstorm Thunderstorms and Rain
5:15 PM 70.7 °F - 69.3 °F 95% 29.90 in 10.0 mi South 5.8 mph - 0.01 in Rain , Thunderstorm Light Thunderstorms and Rain
5:35 PM 70.9 °F - 69.6 °F 96% 29.89 in 10.0 mi SE 8.1 mph - 0.01 in Thunderstorm Scattered Clouds
5:55 PM 70.7 °F - 69.3 °F 95% 29.86 in 10.0 mi SE 11.5 mph 17.3 mph 0.01 in Rain , Thunderstorm Light Thunderstorms and Rain
6:15 PM 71.1 °F - 69.1 °F 93% 29.90 in 10.0 mi SE 15.0 mph - N/A Rain , Thunderstorm Light Thunderstorms and Rain
6:35 PM 71.2 °F - 69.4 °F 94% 29.92 in 10.0 mi South 4.6 mph - 0.01 in Rain Light Rain
6:55 PM 71.2 °F - 69.8 °F 95% 29.92 in 10.0 mi Calm Calm - 0.01 in Rain , Thunderstorm Light Thunderstorms and Rain
7:15 PM 71.6 °F - 70.0 °F 95% 29.94 in 10.0 mi WSW 3.5 mph - N/A   Clear
7:35 PM 72.0 °F - 70.2 °F 94% 29.95 in 10.0 mi WNW 3.5 mph - N/A   Clear
7:55 PM 71.6 °F - 70.2 °F 95% 29.94 in 10.0 mi Calm Calm - N/A   Clear
8:15 PM 71.6 °F - 70.3 °F 96% 29.94 in 7.0 mi Calm Calm - N/A   Clear
8:35 PM 71.8 °F - 70.7 °F 96% 29.95 in 10.0 mi West 3.5 mph - N/A   Clear
8:55 PM 72.0 °F - 70.7 °F 96% 29.95 in 10.0 mi Calm Calm - N/A   Clear
9:15 PM 71.8 °F - 70.7 °F 96% 29.95 in 10.0 mi Calm Calm - N/A   Clear
9:35 PM 72.0 °F - 70.7 °F 96% 29.96 in 10.0 mi West 3.5 mph - N/A   Clear
9:55 PM 71.8 °F - 70.7 °F 96% 29.95 in 10.0 mi WSW 3.5 mph - N/A   Clear
10:15 PM 71.8 °F - 70.7 °F 96% 29.95 in 10.0 mi Calm Calm - N/A   Clear
10:35 PM 71.8 °F - 70.7 °F 96% 29.95 in 10.0 mi Calm Calm - N/A   Clear
10:55 PM 71.2 °F - 70.2 °F 96% 29.94 in 10.0 mi Calm Calm - N/A   Clear
11:15 PM 71.2 °F - 70.2 °F 96% 29.94 in 10.0 mi Calm Calm - N/A   Clear
11:35 PM 70.3 °F - 69.4 °F 97% 29.94 in 10.0 mi Calm Calm - N/A   Clear
11:55 PM 70.3 °F - 69.4 °F 97% 29.94 in 7.0 mi Calm Calm - N/A   Clear